Torna al catalogo

STARLINK-4621

AttivoComunicazioniSSO
NORAD 53676·PAYLOAD·🇺🇸 United States

Lanciato Aug 31, 2022 da Vandenberg Space Force Base

Loading…

Prossimi Passaggi (prossime 24 ore)

TLE

AggiornatoSource: CelesTrak SupGP

Epoca: Sep 14, 2026, 22:22 UTC

1 53676C 22105AE  26257.93243056  .00020058  00000+0  13931-2 0  2571
2 53676  97.2831 132.0579 0002448  87.7019  88.4103 15.05634671    19

Traccia STARLINK-4621 in tempo reale con AllMySat

Download on the App Store